Location: Launois
(49.6535°N, 4.5395°E)
Time: 00:20:23
(UTC+00:00)

CZ-2D R/B - Pass Details

Date: 13 August 2024
Orbit: 790 x 842 km, 98.8° (Epoch: 07 September)

Event Time Altitude Azimuth Distance (km) Brightness Sun altitude
Rises 00:28:49 0° 28° (NNE) 3,335 6.5 -25.1°
Reaches altitude 10° 00:31:57 10° 47° (NE) 2,408 5.3 -25.0°
Maximum altitude 00:35:29 18° 89° (E) 1,920 4.2 -24.9°
Enters shadow 00:37:34 15° 117° (ESE) 2,106 4.1 -24.8°
